This is the latest recevied weather packets stored in our database for station/object K1WJY. If no packets are shown the sender has not sent any weather packets the latest 10 day(s).
| Time | Temp. | Humidity | Pressure | Rain* | Wind** | Luminosity | Snow |
|---|---|---|---|---|---|---|---|
| 1787423895 | 23.33° C | 74% | 1021.5 hPa | 0 mm | - | 214 W/m² | - |
| 1787423593 | 23.33° C | 73% | 1021.6 hPa | 0 mm | - | 194 W/m² | - |
| 1787423292 | 23.89° C | 74% | 1021.4 hPa | 0 mm | - | 198 W/m² | - |
| 1787422989 | 23.89° C | 72% | 1021.6 hPa | 0 mm | - | 187 W/m² | - |
| 1787422684 | 23.33° C | 73% | 1021.6 hPa | 0 mm | - | 195 W/m² | - |
| 1787422381 | 23.33° C | 72% | 1021.9 hPa | 0 mm | - | 205 W/m² | - |
| 1787422076 | 23.33° C | 72% | 1021.7 hPa | 0 mm | - | 204 W/m² | - |
| 1787421773 | 23.33° C | 71% | 1021.8 hPa | 0 mm | - | 208 W/m² | - |
| 1787421467 | 23.89° C | 68% | 1021.6 hPa | 0 mm | - | 204 W/m² | - |
| 1787421163 | 23.89° C | 69% | 1021.2 hPa | 0 mm | - | 194 W/m² | - |
| 1787420858 | 23.89° C | 69% | 1021.8 hPa | 0 mm | - | 170 W/m² | - |
| 1787420554 | 23.89° C | 68% | 1021.5 hPa | 0 mm | - | 196 W/m² | - |
| 1787420250 | 24.44° C | 67% | 1021.5 hPa | 0 mm | - | 201 W/m² | - |
| 1787419946 | 24.44° C | 67% | 1021.8 hPa | 0 mm | - | 236 W/m² | - |
| 1787419642 | 24.44° C | 67% | 1021.7 hPa | 0 mm | - | 236 W/m² | - |
| 1787419342 | 23.89° C | 67% | 1021.7 hPa | 0 mm | - | 262 W/m² | - |
| 1787419039 | 23.89° C | 68% | 1021.8 hPa | 0 mm | - | 297 W/m² | - |
| 1787418738 | 24.44° C | 67% | 1021.8 hPa | 0 mm | - | 285 W/m² | - |
| 1787418435 | 23.89° C | 67% | 1021.7 hPa | 0 mm | - | 301 W/m² | - |
| 1787418131 | 23.89° C | 67% | 1022 hPa | 0 mm | - | 337 W/m² | - |
| 1787417826 | 23.89° C | 64% | 1022 hPa | 0 mm | - | 212 W/m² | - |
| 1787417522 | 23.89° C | 64% | 1022.1 hPa | 0 mm | - | 152 W/m² | - |
| 1787417217 | 23.89° C | 62% | 1021.9 hPa | 0 mm | - | 171 W/m² | - |
| 1787416913 | 23.89° C | 61% | 1022.1 hPa | 0 mm | - | 163 W/m² | - |
| 1787416608 | 23.89° C | 60% | 1022 hPa | 0 mm | - | 138 W/m² | - |
* Rain latest hour (hover to see other rain measurements)
** Current wind speed in m/s (hover to see current wind gust speed)